Alexandria, MN

8:23 PM CST on December 03, 2016 (GMT -0600)
Chandler

Weather History for KAXN - March, 2012

Change the Weather History Date:

Saturday, March 31, 2012

  Actual Average Record
Temperature  
Mean Temperature 50 °F -  
Max Temperature 57 °F 44 °F 75 °F (1963)
Min Temperature 42 °F 24 °F -7 °F (1969)
Degree Days  
Heating Degree Days 16    
Moisture  
Dew Point 46 °F    
Average Humidity 93    
Maximum Humidity 100    
Minimum Humidity 72    
Precipitation  
Precipitation 0.00 in - - ()
Sea Level Pressure  
Sea Level Pressure 29.75 in    
Wind  
Wind Speed 12 mph (SSE)    
Max Wind Speed 20 mph    
Max Gust Speed 25 mph    
Visibility 3 miles    
Events Fog    
Averages and records for this station are not official NWS values.
T = Trace of Precipitation, MM = Missing Value Source: NWS Daily Summary

Daily Weather History Graph

Daily Weather History Graph

Search for Another Location

Airport or City:

Trip Planner

Search our weather history database for the weather conditions in past years. The results will help you decide how hot, cold, wet, or windy it might be!

Date:

Astronomy

Mar. 31, 2012 Rise Set
Actual Time 7:02 AM CDT 7:49 PM CDT
Civil Twilight 6:32 AM CDT 8:19 PM CDT
Nautical Twilight 5:56 AM CDT 8:55 PM CDT
Astronomical Twilight 5:19 AM CDT 9:33 PM CDT
Moon 12:58 PM CDT (3/31) 3:19 AM CDT (3/31)
Length of Visible Light 13h 47m
Length of Day
12h 46m
First Quarter, 59% of the Moon is Illuminated
Mar 31
First Quarter
Apr 6
Full
Apr 13
Last Quarter
Apr 21
New
Apr 29
First Quarter

Hourly Weather History & Observations

Time (CDT) Temp. Windchill Dew Point Humidity Pressure Visibility Wind Dir Wind Speed Gust Speed Precip Events Conditions
12:53 AM 45.0 °F 38.9 °F 43.0 °F 93% 29.82 in 5.0 mi SE 12.7 mph - N/A   Clear
1:53 AM 44.1 °F 37.7 °F 42.1 °F 93% 29.81 in 3.0 mi SE 12.7 mph - N/A   Clear
2:21 AM 44.6 °F 38.1 °F 42.8 °F 93% 29.79 in 3.0 mi SE 13.8 mph - N/A   Scattered Clouds
2:35 AM 44.6 °F 38.8 °F 42.8 °F 93% 29.79 in 3.0 mi SE 11.5 mph - N/A   Mostly Cloudy
2:53 AM 43.0 °F 36.8 °F 42.1 °F 97% 29.81 in 3.0 mi SE 11.5 mph - N/A   Mostly Cloudy
3:00 AM 42.8 °F 36.6 °F 42.8 °F 100% 29.79 in 3.0 mi ESE 11.5 mph - N/A   Partly Cloudy
3:36 AM 42.8 °F 36.2 °F 42.8 °F 100% 29.77 in 3.0 mi SE 12.7 mph - N/A   Mostly Cloudy
3:53 AM 43.0 °F 36.0 °F 41.0 °F 93% 29.78 in 3.0 mi SE 13.8 mph - N/A   Overcast
4:53 AM 43.0 °F 35.7 °F 42.1 °F 97% 29.75 in 4.0 mi SE 15.0 mph - N/A   Overcast
5:53 AM 44.1 °F 36.8 °F 43.0 °F 96% 29.76 in 3.0 mi SE 16.1 mph - N/A   Overcast
6:53 AM 44.1 °F 35.9 °F 43.0 °F 96% 29.75 in 3.0 mi SSE 19.6 mph - N/A   Overcast
7:30 AM 44.6 °F 37.8 °F 42.8 °F 93% 29.75 in 2.5 mi SSE 15.0 mph 21.9 mph N/A   Overcast
7:53 AM 45.0 °F 38.9 °F 44.1 °F 97% 29.80 in 1.8 mi SSE 12.7 mph - N/A   Overcast
8:07 AM 44.6 °F 38.4 °F 44.6 °F 100% 29.76 in 1.0 mi SSE 12.7 mph - N/A   Overcast
8:16 AM 44.6 °F 37.4 °F 44.6 °F 100% 29.76 in 0.5 mi SE 16.1 mph - N/A Fog Fog
8:53 AM 44.1 °F 36.5 °F 44.1 °F 100% 29.77 in 0.2 mi SSE 17.3 mph 25.3 mph N/A Fog Fog
9:53 AM 45.0 °F 40.1 °F 45.0 °F 100% 29.80 in 0.2 mi SSE 9.2 mph - N/A Fog Fog
10:53 AM 45.0 °F 37.9 °F 45.0 °F 100% 29.76 in 0.5 mi SSE 16.1 mph - N/A Fog Fog
11:21 AM 44.6 °F 38.4 °F 44.6 °F 100% 29.75 in 0.8 mi SSE 12.7 mph - N/A   Overcast
11:46 AM 46.4 °F 41.1 °F 44.6 °F 93% 29.75 in 1.0 mi SSE 11.5 mph 17.3 mph N/A   Overcast
11:53 AM 46.0 °F 39.9 °F 46.0 °F 100% 29.77 in 1.0 mi SSE 13.8 mph - N/A   Overcast
12:19 PM 48.2 °F - 46.4 °F 93% 29.74 in 1.5 mi South 15.0 mph - N/A   Overcast
12:37 PM 48.2 °F - 46.4 °F 93% 29.73 in 2.0 mi SSE 17.3 mph - N/A   Overcast
12:50 PM 48.2 °F - 46.4 °F 93% 29.73 in 3.0 mi SSE 16.1 mph - N/A   Overcast
12:53 PM 48.0 °F - 46.0 °F 93% 29.75 in 3.0 mi South 18.4 mph - N/A   Overcast
1:53 PM 50.0 °F - 46.9 °F 89% 29.74 in 4.0 mi SSE 16.1 mph - N/A   Overcast
2:42 PM 51.8 °F - 48.2 °F 88% 29.73 in 4.0 mi South 8.1 mph - N/A   Overcast
2:53 PM 51.1 °F - 48.0 °F 89% 29.75 in 5.0 mi South 5.8 mph - N/A   Overcast
3:48 PM 53.6 °F - 48.2 °F 82% 29.71 in 5.0 mi SSE 3.5 mph - N/A   Haze
3:53 PM 53.1 °F - 48.0 °F 83% 29.73 in 5.0 mi Variable 3.5 mph - N/A   Haze
4:53 PM 57.0 °F - 48.9 °F 74% 29.72 in 6.0 mi SE 6.9 mph - N/A   Haze
5:33 PM 57.2 °F - 48.2 °F 72% 29.70 in 6.0 mi South 8.1 mph - N/A   Haze
5:53 PM 57.0 °F - 48.9 °F 74% 29.72 in 6.0 mi South 8.1 mph - N/A   Haze
6:53 PM 55.9 °F - 48.9 °F 77% 29.71 in 6.0 mi SE 8.1 mph - N/A   Haze
7:53 PM 52.0 °F - 46.9 °F 83% 29.73 in 5.0 mi SE 4.6 mph - N/A   Haze
8:53 PM 48.0 °F - 46.0 °F 93% 29.75 in 5.0 mi SE 5.8 mph - N/A   Clear
9:53 PM 48.0 °F - 46.9 °F 96% 29.74 in 3.0 mi SE 8.1 mph - N/A   Mostly Cloudy
10:00 PM 48.2 °F - 46.4 °F 93% 29.72 in 3.0 mi SE 8.1 mph - N/A   Mostly Cloudy
10:13 PM 48.2 °F - 46.4 °F 93% 29.72 in 2.5 mi SSE 8.1 mph - N/A   Overcast
10:24 PM 48.2 °F - 48.2 °F 100% 29.72 in 1.2 mi SE 9.2 mph - N/A   Overcast
10:31 PM 48.2 °F - 48.2 °F 100% 29.72 in 0.5 mi SSE 9.2 mph - N/A Fog Fog
10:53 PM 48.0 °F - 48.0 °F 100% 29.73 in 0.2 mi SE 9.2 mph - N/A Fog Fog
11:53 PM 48.0 °F - 48.0 °F 100% 29.74 in 0.2 mi SSE 8.1 mph - N/A Fog Fog